Simultaneous Nadir Overpasses (SNOs) Predictions

Prediction of SNOs between AQUA and NOAA-19 Satellite Orbit:

Table of predicted SNOs for the next 14.0 days since TLE Epoch: 1/15/2022
Index Date (AQUA) Time (AQUA) Lat,Lon (AQUA) SZA (AQUA ) Date (NOAA-19) Time (NOAA-19) Lat,Lon (NOAA-19) SZA (NOAA-19 ) Distance(km) Time Diff (sec)
1 01/15/2022 12:15:19 78.08, -22.74 99.85 01/15/2022 12:14:42 78.07, -22.86 99.86 3.19 37
2 01/15/2022 13:04:46 -78.12, 144.74 80.12 01/15/2022 13:05:39 -78.14, 144.79 80.11 2.55 53
3 01/17/2022 17:48:59 -77.94, 74.51 80.76 01/17/2022 17:47:49 -77.86, 72.76 80.67 41.78 70
4 01/17/2022 18:38:30 78.12,-118.70 99.48 01/17/2022 18:38:45 78.08,-118.72 99.44 4.03 15
5 01/20/2022 00:12:12 -78.07, -21.87 81.05 01/20/2022 00:11:46 -78.08, -21.92 81.02 1.70 26
6 01/20/2022 01:01:40 78.12, 145.51 99.02 01/20/2022 01:02:47 78.13, 145.62 99.00 2.69 67
7 01/22/2022 05:45:55 78.05, 74.80 98.45 01/22/2022 05:44:52 78.05, 74.75 98.48 1.66 63
8 01/22/2022 06:35:22 -78.07,-117.70 81.53 01/22/2022 06:35:48 -78.10,-117.70 81.51 3.33 26
9 01/24/2022 12:09:05 78.06, -21.06 97.95 01/24/2022 12:08:55 78.06, -21.18 97.95 2.75 10
10 01/24/2022 12:58:36 -78.26, 145.61 81.81 01/24/2022 12:59:45 -78.31, 147.65 81.93 46.26 69
11 01/26/2022 17:42:47 -78.03, 75.67 82.65 01/26/2022 17:41:55 -78.03, 75.52 82.62 3.44 52
12 01/26/2022 18:32:15 78.09,-116.97 97.43 01/26/2022 18:32:57 78.09,-116.90 97.41 1.54 42
13 01/29/2022 00:05:56 -78.06, -20.27 83.19 01/29/2022 00:05:56 -78.05, -20.30 83.19 1.55 0



Historial Predications of SNOs between AQUA and NOAA-19
